Location: Easter Hill Village
(37.9235°N, 122.3444°W)
Time: 02:49:24
(UTC+00:00)

Cosmos 1538 Rocket - Pass Details

Date: 16 September 2019
Orbit: 752 x 792 km, 74.0° (Epoch: 18 October)

Event Time Altitude Azimuth Distance (km) Brightness Sun altitude
Rises 12:50:52 0° 196° (SSW) 3,207 6.9 -12.7°
Reaches altitude 10° 12:53:14 10° 196° (SSW) 2,280 6.2 -12.3°
Maximum altitude 12:58:24 87° 110° (ESE) 761 4.0 -11.3°
Drops below altitude 10° 13:03:35 10° 19° (NNE) 2,282 6.9 -10.3°
Sets 13:05:57 0° 19° (NNE) 3,209 7.7 -9.8°
